Flag for U.S.A. Weather past 2 weeks in Greenville, South Carolina, U.S.A.

Now
64 °F

Overcast.


Feels Like: 64 °F
Forecast: 59 / 78 °F
Wind: 12 mph from East

Location: Greenville Downtown Airport

Current Time: Apr 26, 2015 at 7:29:23 PM

Latest Report: Apr 26, 2015 at 6:53 PM


Visibility: 10 mi

Pressure: 29.67 "Hg

Humidity: 65%

Dew point: 52 °F

Location of GreenvilleLocation

Historic Weather in Greenville — Graph

°F

Greenville temperature yesterday

Maximum temperature yesterday: 64 °F (at 6:53 PM)
Minimum temperature yesterday: 55 °F (at 6:53 AM)
Average temperature yesterday: 60 °F

Past Weeks' High & Low Weather Summary

 TemperatureHumidityPressure
High82 °F (Apr 14, 4:53 PM)94% (Apr 13, 7:53 PM)30.34 "Hg (Apr 13, 7:53 PM)
Low47 °F (Apr 22, 6:53 AM)18% (Apr 23, 4:53 PM)29.56 "Hg (Apr 26, 2:53 AM)
Average63 °F68%29.98 "Hg
* Reported Apr 11 5:53 PM — Apr 26 5:53 PM, Greenville, Weather by CustomWeather, © 2015

Note: Actual official high and low records may vary slightly from our data, if they occured in-between our weather recording intervals... More about our weather records

Advertising

Greenville weather history for previous 24 hours

 ConditionsComfort  
Time TempWeatherWind HumidityBarometerVisibility
5:53 PM
Sun, Apr 26
66 °FMostly cloudy.12 mph63%29.64 "Hg10 mi
4:53 PM69 °FPartly sunny.13 mph61%29.61 "Hg10 mi
3:53 PM70 °FPassing clouds.12 mph61%29.61 "Hg10 mi
2:53 PM67 °FBroken clouds.12 mph71%29.61 "Hg10 mi
1:53 PM73 °FPartly sunny.14 mph64%29.60 "Hg10 mi
12:53 PM79 °FPassing clouds.12 mph44%29.60 "Hg10 mi
11:53 AM77 °FSunny.9 mph48%29.60 "Hg10 mi
10:53 AM74 °FSunny.12 mph57%29.61 "Hg10 mi
9:53 AM72 °FSunny.10 mph66%29.60 "Hg10 mi
8:53 AM67 °FSunny.10 mph81%29.60 "Hg10 mi
7:53 AM63 °FSunny.7 mph90%29.59 "Hg10 mi
6:53 AM61 °FFog.6 mph93%29.57 "Hg4 mi
6:01 AM62 °FFog.5 mph93%29.58 "Hg2 mi
4:53 AM61 °FFog.3 mph93%29.56 "Hg3 mi
4:00 AM61 °FFog.8 mph93%29.59 "Hg3 mi
2:53 AM63 °FFog.No wind93%29.56 "Hg2 mi
1:53 AM62 °FFog.5 mph90%29.58 "Hg4 mi
12:53 AM59 °FFog.3 mph93%29.57 "Hg3 mi
11:53 PM
Sat, Apr 25
61 °FFog.No wind93%29.59 "Hg6 mi
10:53 PM61 °FFog.No wind90%29.61 "Hg6 mi
10:04 PM61 °FFog.5 mph90%29.61 "Hg5 mi
9:53 PM62 °FFog.3 mph90%29.59 "Hg6 mi
8:53 PM62 °FSunny.3 mph90%29.60 "Hg8 mi
7:53 PM64 °FSunny.3 mph84%29.62 "Hg10 mi
Weather by CustomWeather, © 2015

See weather overviewHow to use our weather pages